[[{"header":{"parameterUnit":"m.s-1","parameterCategory":1,"la1":30.2991,"la2":30.254,"lo1":-89.0895,"lo2":-89.0444,"dy":0.0017,"dx":0.0017,"nx":28,"ny":28,"refTime":"2025-01-28T03:00:00:Z","depth":0,"parameterNumber":2,"parameterNumberName":"U-component_of_WINDS"},"data":[0,0,0,0,0,0,0,0,0,0,0,0,0,0,0,0,0,0,0,0,0,0,0,0,0,0,0,0,0,0,0,0,0,0,0,0,0,0,0,0,0,0,0,0,0,0,0,0,0,0,0,0,0,0,0,0,0,0,0.1549,0.155,0,0.1621,0.1622,0.1623,0.1652,0.1652,0.1652,0.1652,0.1727,0.1729,0.1731,0,0,0,0,0,0,0,0,0,0,0,0,0,0.1437,0.1439,0.1549,0.155,0.1551,0.1621,0.1622,0.1623,0.1653,0.1652,0.1652,0.1652,0.1726,0.1728,0.1731,0,0,0,0,0,0,0,0,0,0,0,0,0,0.1495,0.144,0.1549,0.1574,0.1577,0.1621,0.1622,0.1623,0.1653,0.1652,0.1652,0.1652,0.1725,0.1728,0.1731,0.1755,0,0,0.1741,0.1742,0,0,0,0,0,0,0,0,0.1492,0.1499,0.1569,0.1572,0.1576,0.1627,0.161,0.1667,0.1653,0.1624,0.1652,0.1652,0.1694,0.17,0.1714,0.1759,0.1762,0.1741,0.1743,0.1745,0.1745,0,0,0,0,0,0,0,0.1488,0.1496,0.1578,0.157,0.1574,0.1582,0.159,0.1621,0.1659,0.1626,0.1629,0.1637,0.1696,0.171,0.1716,0.1763,0.1741,0.1744,0.1746,0.1747,0.183,0.183,0,0,0,0,0,0,0.1479,0.1493,0.1575,0.158,0.1532,0.1584,0.1593,0.1611,0.1659,0.1666,0.1637,0.1638,0.1705,0.1712,0.1718,0.1749,0.1745,0.1748,0.1749,0.183,0.183,0.183,0,0,0,0,0,0,0.1477,0.1487,0.1572,0.1537,0.1548,0.1586,0.1606,0.1613,0.1628,0.1667,0.1674,0.1645,0.1705,0.1714,0.1745,0.1752,0.1749,0.1752,0.1829,0.183,0.183,0.181,0,0,0,0,0,0,0.1474,0.1485,0.1495,0.1537,0.155,0.1599,0.1607,0.1614,0.1633,0.1635,0.1676,0.1683,0.1706,0.174,0.1749,0.1756,0.1754,0.1829,0.1829,0.183,0.1811,0.181,0.181,0,0,0,0,0,0.147,0.1488,0.1496,0.1506,0.1563,0.1599,0.1606,0.1632,0.1633,0.1643,0.1668,0.1682,0.1749,0.1743,0.1753,0.1761,0.1829,0.1829,0.183,0.1811,0.181,0.181,0,0,0,0,0,0,0.1447,0.1494,0.1503,0.1535,0.1563,0.1604,0.1617,0.163,0.1659,0.1659,0.169,0.1699,0.1727,0.1748,0.174,0.1786,0.179,0.1793,0.1772,0.1772,0.1771,0.1766,0.1757,0,0,0,0,0,0.1445,0.147,0.151,0.1534,0.1547,0.158,0.1596,0.1613,0.1643,0.1655,0.1682,0.1711,0.1739,0.1756,0.1784,0.1813,0.1822,0.1823,0.1823,0.1822,0.1824,0.184,0.1841,0.1832,0.1832,0.1832,0,0,0.1443,0.1471,0.1486,0.153,0.1554,0.1579,0.159,0.1616,0.1635,0.1659,0.1691,0.1711,0.1745,0.1775,0.179,0.1793,0.1828,0.1823,0.1822,0.1825,0.1841,0.1841,0.1842,0.1833,0.1833,0.1833,0,0,0.1451,0.1476,0.1498,0.1521,0.1555,0.1577,0.1582,0.162,0.1635,0.1667,0.1685,0.1707,0.1755,0.1778,0.1795,0.181,0.1823,0.1818,0.1815,0.183,0.1831,0.1832,0.1836,0.1837,0.1819,0.1819,0.1819,0,0.1444,0.1483,0.1508,0.1533,0.1552,0.1574,0.1596,0.1617,0.1659,0.1671,0.1674,0.1732,0.1757,0.1792,0.1795,0.1809,0.1815,0.1814,0.1829,0.183,0.1831,0.1835,0.1837,0.1819,0.1819,0.1819,0.1819,0,0.1472,0.1498,0.1512,0.1551,0.1571,0.1595,0.1623,0.164,0.1654,0.1675,0.1706,0.1735,0.1769,0.1778,0.1793,0.1815,0.1815,0.1823,0.1827,0.183,0.1835,0.1837,0.1817,0.1818,0.1818,0.1818,0,0,0.147,0.1521,0.1526,0.1543,0.1582,0.1603,0.1626,0.1658,0.1672,0.17,0.172,0.1758,0.1764,0.1785,0.1802,0.1815,0.1823,0.182,0.1822,0.182,0.1848,0.1842,0.1844,0.1831,0.1832,0.1832,0.1845,0,0.1484,0.1528,0.155,0.1584,0.1608,0.1628,0.1649,0.1674,0.1693,0.1716,0.1737,0.1764,0.177,0.1782,0.1796,0.1819,0.1829,0.1818,0.185,0.1851,0.1842,0.1847,0.1842,0.1852,0.1847,0.1847,0.1848,0,0.1506,0.1533,0.1569,0.1603,0.1614,0.1632,0.1662,0.1684,0.1713,0.1726,0.1747,0.1763,0.1788,0.1789,0.1824,0.1816,0.183,0.1843,0.1844,0.1849,0.185,0.1851,0.1856,0.1858,0.1851,0.1851,0.185,0,0.1501,0.1545,0.1572,0.1587,0.1628,0.164,0.1657,0.1686,0.1703,0.1729,0.174,0.1769,0.1785,0.1806,0.1829,0.1828,0.1861,0.1865,0.1872,0.1871,0.1879,0.1878,0.1886,0.1887,0.1887,0.1887,0.1887,0,0.1514,0.1536,0.157,0.1587,0.1611,0.1636,0.1659,0.1678,0.1703,0.1723,0.1742,0.176,0.179,0.1811,0.183,0.1855,0.1862,0.1873,0.1877,0.1871,0.187,0.1882,0.1882,0.1888,0.1888,0.1888,0.1888,0,0.1513,0.1537,0.1568,0.1603,0.1613,0.1629,0.1659,0.1675,0.1694,0.172,0.1727,0.1757,0.1784,0.1808,0.1844,0.1856,0.1881,0.1887,0.1872,0.1874,0.188,0.1879,0.1896,0.19,0.1898,0.1898,0.1898,0,0.152,0.1537,0.1574,0.1588,0.1605,0.1629,0.1646,0.167,0.1687,0.172,0.1732,0.176,0.1783,0.1825,0.185,0.1876,0.1883,0.1887,0.1888,0.188,0.1883,0.1882,0.1883,0.1887,0.1887,0.1887,0.1887,0,0.153,0.1541,0.1565,0.1592,0.1612,0.1635,0.1659,0.1669,0.1698,0.1716,0.1743,0.1761,0.1796,0.1823,0.1852,0.187,0.1883,0.1886,0.1889,0.1884,0.1874,0.1879,0.1871,0.1886,0.1886,0.1886,0.1886,0.1886,0.1534,0.1549,0.1576,0.1602,0.1622,0.1643,0.166,0.168,0.1703,0.1734,0.1746,0.1773,0.18,0.184,0.1857,0.1878,0.1881,0.1886,0.1887,0.1888,0.1886,0.1869,0.1884,0.1884,0.1884,0.1884,0.1884,0,0.1545,0.1563,0.1586,0.1618,0.1637,0.1647,0.1672,0.1688,0.1712,0.1735,0.1757,0.1787,0.1813,0.1839,0.1866,0.1877,0.1884,0.1884,0.1883,0.1887,0.1883,0.1877,0.1878,0.1878,0.1878,0.1878,0.1878,0.1878,0.1553,0.1578,0.1592,0.1627,0.1645,0.1672,0.1685,0.1705,0.1723,0.1756,0.1777,0.1793,0.1817,0.1846,0.1869,0.1876,0.1885,0.1883,0.1891,0.1887,0.1887,0.1888,0.1883,0.1885,0.1885,0.1894,0.1894,0.1894]},{"header":{"parameterUnit":"m.s-1","parameterCategory":1,"la1":30.2991,"la2":30.254,"lo1":-89.0895,"lo2":-89.0444,"dy":0.0017,"dx":0.0017,"nx":28,"ny":28,"refTime":"2025-01-28T03:00:00:Z","depth":0,"parameterNumber":3,"parameterNumberName":"V-component_of_WINDS"},"data":[0,0,0,0,0,0,0,0,0,0,0,0,0,0,0,0,0,0,0,0,0,0,0,0,0,0,0,0,0,0,0,0,0,0,0,0,0,0,0,0,0,0,0,0,0,0,0,0,0,0,0,0,0,0,0,0,0,0,1.6657,1.6657,0,1.6649,1.6649,1.6649,1.6701,1.6702,1.6704,1.6705,1.6692,1.669,1.6689,0,0,0,0,0,0,0,0,0,0,0,0,0,1.6711,1.671,1.6657,1.6657,1.6657,1.6649,1.6649,1.6649,1.67,1.6702,1.6704,1.6706,1.6693,1.6691,1.6688,0,0,0,0,0,0,0,0,0,0,0,0,0,1.6694,1.6709,1.6657,1.6682,1.6684,1.6649,1.6649,1.6649,1.67,1.6702,1.6705,1.6707,1.6693,1.6691,1.6688,1.6628,0,0,1.668,1.6679,0,0,0,0,0,0,0,0,1.6694,1.6692,1.6678,1.668,1.6682,1.6678,1.6664,1.6642,1.67,1.6694,1.6705,1.6708,1.6685,1.6684,1.6677,1.6628,1.6627,1.668,1.6679,1.6677,1.6677,0,0,0,0,0,0,0,1.6696,1.6692,1.6654,1.6678,1.668,1.6691,1.6691,1.666,1.6677,1.6694,1.6698,1.6697,1.6687,1.6679,1.6677,1.6627,1.668,1.6678,1.6676,1.6675,1.6526,1.6524,0,0,0,0,0,0,1.6694,1.6693,1.6654,1.6653,1.6694,1.6689,1.6689,1.6677,1.6678,1.668,1.6695,1.6699,1.6683,1.668,1.6677,1.6605,1.6677,1.6675,1.6674,1.6529,1.6526,1.6523,0,0,0,0,0,0,1.6695,1.669,1.6654,1.6674,1.667,1.6685,1.6672,1.6676,1.6669,1.6678,1.6681,1.6684,1.6684,1.6681,1.664,1.6606,1.6674,1.6672,1.6531,1.6528,1.6524,1.6462,0,0,0,0,0,0,1.6697,1.669,1.6669,1.6673,1.6669,1.6619,1.667,1.6674,1.6665,1.667,1.6669,1.6671,1.6686,1.6644,1.6637,1.6603,1.667,1.6534,1.653,1.6525,1.6467,1.6457,1.6448,0,0,0,0,0,1.6698,1.6651,1.6667,1.6662,1.6643,1.6617,1.6614,1.6634,1.6662,1.6639,1.6645,1.6671,1.6611,1.6639,1.6632,1.6597,1.6537,1.6531,1.6526,1.6472,1.6459,1.6448,0,0,0,0,0,0,1.664,1.6652,1.667,1.6623,1.6619,1.6625,1.6598,1.662,1.6606,1.6611,1.6635,1.6634,1.6589,1.659,1.662,1.6538,1.6578,1.6571,1.654,1.6528,1.6518,1.6518,1.6667,0,0,0,0,0,1.6622,1.6601,1.6612,1.6569,1.6566,1.6582,1.6572,1.6587,1.6583,1.6581,1.6584,1.6577,1.6557,1.6543,1.6524,1.6469,1.6468,1.6441,1.6431,1.6423,1.6416,1.6385,1.6373,1.6505,1.6505,1.6505,0,0,1.6583,1.6587,1.6572,1.6557,1.6556,1.6532,1.658,1.6553,1.6535,1.6576,1.6538,1.654,1.6534,1.6485,1.6464,1.6484,1.638,1.6416,1.641,1.6407,1.6378,1.6366,1.6354,1.6501,1.6502,1.6503,0,0,1.6501,1.6503,1.6467,1.6465,1.6462,1.6473,1.6465,1.6468,1.6472,1.6434,1.6464,1.6443,1.6407,1.6402,1.6394,1.631,1.6332,1.6303,1.6252,1.6221,1.6211,1.6202,1.617,1.6158,1.6297,1.6297,1.6297,0,1.6453,1.642,1.6445,1.6416,1.6408,1.6446,1.6409,1.6405,1.6396,1.6388,1.6412,1.6368,1.6367,1.6316,1.6296,1.6289,1.6278,1.6303,1.6211,1.6202,1.6194,1.6163,1.6152,1.6293,1.6293,1.6294,1.6294,0,1.636,1.6337,1.6308,1.63,1.6289,1.6255,1.6274,1.6259,1.6276,1.6284,1.6245,1.6245,1.6227,1.6217,1.6233,1.6168,1.6181,1.6207,1.6247,1.6177,1.6149,1.6138,1.6288,1.6289,1.629,1.6291,0,0,1.6239,1.6246,1.6235,1.6231,1.6232,1.6213,1.6181,1.6166,1.6152,1.6145,1.6117,1.6087,1.6111,1.6102,1.6118,1.6092,1.6023,1.6121,1.6121,1.6101,1.595,1.5928,1.5915,1.6039,1.6037,1.6035,1.595,0,1.6157,1.6104,1.6126,1.6071,1.6048,1.6085,1.6057,1.6053,1.606,1.6041,1.6048,1.6025,1.6061,1.6055,1.6031,1.6036,1.5992,1.6043,1.6011,1.6009,1.6009,1.59,1.5878,1.5797,1.5939,1.5937,1.5936,0,1.6054,1.6044,1.5987,1.5991,1.5982,1.5957,1.5944,1.5926,1.5922,1.5929,1.5919,1.5941,1.5908,1.595,1.5904,1.5938,1.5927,1.5927,1.5925,1.5921,1.5967,1.5891,1.5772,1.5759,1.5919,1.5921,1.5922,0,1.5969,1.5941,1.5903,1.5899,1.5903,1.5884,1.5885,1.5884,1.5873,1.5861,1.5854,1.5838,1.5828,1.5815,1.583,1.586,1.5781,1.5825,1.5784,1.5783,1.5764,1.5764,1.5639,1.576,1.576,1.576,1.576,0,1.5874,1.5837,1.5865,1.5841,1.58,1.5825,1.5784,1.5788,1.5786,1.5763,1.5794,1.577,1.5794,1.5772,1.5785,1.5744,1.574,1.5743,1.5746,1.5739,1.5738,1.573,1.5735,1.5757,1.5758,1.5758,1.5759,0,1.5771,1.5788,1.5749,1.5757,1.5758,1.5727,1.5733,1.571,1.572,1.569,1.5684,1.5699,1.5675,1.569,1.5666,1.5674,1.562,1.5632,1.5622,1.5624,1.5581,1.5584,1.5444,1.5427,1.5561,1.5559,1.5558,0,1.5708,1.5681,1.5686,1.5673,1.5672,1.5651,1.5641,1.5664,1.5651,1.5645,1.5623,1.5602,1.5587,1.5547,1.5554,1.5535,1.5546,1.5498,1.5543,1.5536,1.5543,1.5543,1.554,1.5488,1.5487,1.5485,1.5484,0,1.5594,1.5604,1.5589,1.5575,1.5562,1.5553,1.5546,1.5533,1.5557,1.5541,1.5518,1.5506,1.5482,1.546,1.5445,1.5444,1.5467,1.5471,1.546,1.5451,1.5445,1.5446,1.5595,1.5473,1.5474,1.5475,1.5476,1.5476,1.5508,1.5485,1.5485,1.5466,1.5464,1.5456,1.5435,1.5443,1.5425,1.5408,1.5423,1.5395,1.5391,1.5373,1.5369,1.5346,1.5365,1.535,1.5346,1.5341,1.5334,1.5451,1.5344,1.5344,1.5344,1.5345,1.5345,0,1.5394,1.5396,1.5379,1.5368,1.5353,1.5379,1.5373,1.5357,1.5333,1.5329,1.5313,1.5286,1.5266,1.5272,1.5253,1.5233,1.5243,1.5227,1.5228,1.5227,1.5319,1.533,1.5219,1.5219,1.5219,1.5219,1.5219,1.5219,1.5333,1.5295,1.5305,1.5265,1.5267,1.5242,1.5235,1.5228,1.5225,1.5194,1.5177,1.5182,1.5181,1.5163,1.5144,1.5146,1.5137,1.5116,1.5122,1.5208,1.522,1.5232,1.5242,1.5115,1.5115,1.5031,1.503,1.503]}]]